Retour au catalogue

ZINYUAN-3

ActifScienceSSO
NORAD 45939·PAYLOAD·🇨🇳 China

Lancé Jul 25, 2020 depuis Taiyuan Satellite Launch Center

Loading…

Prochains Passages (prochaines 24 heures)

TLE

FraisSource: Space-Track

Époque: Sep 14, 2026, 15:21 UTC

1 45939U 20051A   26257.64005103  .00003108  00000-0  14182-3 0  9990
2 45939  97.5295 324.6828 0006619  50.8106 309.3716 15.21355616340948

Suivez ZINYUAN-3 en temps réel avec AllMySat

Download on the App Store